Preview of NWS' New Version of Forecast
This preview is not operational and should not be used for support decisions.

Regional Weather Roundup (RWR)

Issued by Wakefield, VA (AKQ)

                            
000
ASUS41 KAKQ 200914
RWRAKQ

REGIONAL WEATHER ROUNDUP
NATIONAL WEATHER SERVICE WAKEFIELD VA
400 AM EST WED FEB 20 2019

Note: "fair" indicates few or no clouds below 12,000 feet with no
significant weather and/or obstructions to visibility. * = Denotes
station may not report precipitation (e.g., rain,snow,etc.),
thunder or fog.

VAZ042-051-052>054-056-201000-
NORTHERN VIRGINIA
  
CITY           SKY/WX    TMP DP  RH WIND       PRES   REMARKS
WASH NATIONAL  CLOUDY    36  19  50 E10       30.56F                  
DULLES         CLOUDY    34  16  47 SE6       30.52F                  
FORT BELVOIR   FAIR      35  16  45 E3        30.53F                  
QUANTICO       CLOUDY    37  28  70 SE9       30.55F                  
FREDERICKSBRG* DRIZZLE   35  26  69 CALM      30.53F                  
STAFFORD*      FLURRIES  35  26  69 S6        30.58F                  
WARRENTON      CLOUDY    34  22  61 CALM      30.51F                  
CULPEPER*      CLOUDY    34  25  70 CALM      30.53F                  
MANASSAS*      CLOUDY    34  19  54 E5        30.53F                  
LEESBURG*      CLOUDY    34  19  55 E3        30.53F                  
WINCHESTER     CLOUDY    32  14  47 SE3       30.49F                  
FRONT ROYAL*   CLOUDY    34  19  55 MISG      30.46F                  
LURAY*         LGT SNOW  32  30  93 S3        30.45F                  
$$

VAZ048-049-060>072-079>083-201000-
CENTRAL AND SOUTH CENTRAL VIRGINIA
  
CITY           SKY/WX    TMP DP  RH WIND       PRES   REMARKS
RICHMOND       CLOUDY    36  26  67 NE7       30.53F                  
CHESTERFIELD*  MIX PCPN  34  27  75 E3        30.54S                  
PETERSBURG*    LGT SNOW  33  29  86 CALM      30.52S                  
HANOVER        LGT SNOW  33  28  81 NE5       30.55F VSB 3/4          
TAPPAHANNOCK*  CLOUDY    35  26  70 CALM      30.54F                  
QUINTON*       CLOUDY    34  25  69 N3        30.54S                  
CHARLOTTSVILLE SNOW      32  28  85 CALM      30.49F VSB 1/2          
GORDONSVILLE*  FOG       31  31 100 CALM      30.51F VSB 1            
ORANGE*        LGT SNOW  30  30 100 CALM      30.52F VSB 1            
LOUISA*        LGT SNOW  30  26  83 SE7       30.55F VSB 1            
BUMPASS*       CLOUDY    32  25  74 SE3       30.53S                  
FARMVILLE*     LGT SNOW  33  32  99 E3        30.48F VSB 3/4          
CREWE*         CLOUDY    31  30  96 E5        30.49S                  
FORT PICKETT*  CLOUDY    32  32 100 E5        30.50S                  
CHASE CITY*    CLOUDY    32  32 100 E5        30.49F                  
CLARKSVILLE*   CLOUDY    34  34 100 NE5       30.49R                  
SOUTH HILL*    CLOUDY    32  32 100 NE5       30.56S                  
LAWRENCEVILLE* CLOUDY    31  30  95 E3        30.51F                  
EMPORIA*       CLOUDY    32  28  86 N6        30.53F                  
$$

VAZ088>098-201000-
SOUTHEAST VIRGINIA
  
CITY           SKY/WX    TMP DP  RH WIND       PRES   REMARKS
NORFOLK        CLOUDY    39  23  52 NE9       30.51F                  
VIRGINIA BEACH CLOUDY    38  22  52 E8        30.51F                  
NORFOLK NAVAL  CLOUDY    39  20  46 E8        30.52F                  
WEST POINT*    CLOUDY    36  25  66 NE3       30.56F                  
SALUDA*        CLOUDY    37  22  54 E7        30.52F                  
NEWPORT NEWS   CLOUDY    38  22  52 NE9       30.51F                  
LANGLEY AFB    CLOUDY    41  18  38 E10       30.50F                  
FORT EUSTIS    FAIR      39  21  48 E3        30.48F                  
WILLIAMSBURG*  MOCLDY    39  27  60 CALM      30.52F                  
HR EXEC AP*    LGT RAIN  34  30  85 CALM      30.52F                  
FRANKLIN*      CLOUDY    33  29  83 E3        30.52F                  
US460-WAKEFLD  LGT RAIN  34  28  79 CALM      30.53F                  
$$

VAZ020-022-025-037-045-201000-
WEST CENTRAL AND SOUTHWEST VIRGINIA
  
CITY           SKY/WX    TMP DP  RH WIND       PRES   REMARKS
STAUNTON*      LGT SNOW  28  28  96 SE3       30.45F VSB 3/4          
WAYNESBORO*    CLOUDY    28  28 100 SE3       30.43F VSB 3/4          
HOT SPRINGS VA SNOW      27  27 100 E12       30.24F VSB 1/2 WCI  17  
LYNCHBURG      LGT SNOW  32  32 100 E5        30.44F FOG              
DANVILLE       CLOUDY    33  33 100 E7        30.45F FOG              
SOUTH BOSTON*  CLOUDY    33  32  95 E5        30.47F                  
MARTINSVILLE   DRIZZLE   32  32 100 CALM      30.47R                  
ROANOKE        LGTSLEET  32  31  96 SE9       30.42F FOG              
BLACKSBURG     MIX PCPN  31  31 100 E8        30.35F                  
DUBLIN*        CLOUDY    32  32  99 E9        30.33F                  
MARION*        CLOUDY    33  32  97 NE9       30.28F                  
HILLSVILLE*    CLOUDY    29  28  96 SE8G23    30.29F                  
RICHLANDS*     CLOUDY    34  31  89 SE17G25   30.13F WCI  23          
WISE*          CLOUDY    36  36 100 SE15G23   30.08F                  
ABINGDON*      CLOUDY    38  33  82 E10G16    30.18F                  
$$

MDZ021>025-VAZ099-100-201000-
SOUTHERN MARYLAND AND THE DELMARVA PENINSULA
  
CITY           SKY/WX    TMP DP  RH WIND       PRES   REMARKS
PATUXENT RIVER CLOUDY    36  18  48 E9        30.57F                  
BAY BRIDGE APT CLOUDY    34  14  44 E6        30.56F                  
LEONARDTOWN    CLOUDY    34  21  60 E5        30.56F                  
DOVER          FAIR      31  22  69 N3        30.58F                  
GEORGETOWN     FAIR      35  20  54 NE3       30.58S                  
EASTON         FAIR      33  16  48 E3        30.60F                  
CAMBRIDGE      CLOUDY    34  16  47 NE3       30.57F                  
SALISBURY      CLOUDY    34  20  56 NE3       30.57F                  
TANGIER        CLOUDY    37  23  56 E8        30.54F                  
OCEAN CITY     CLOUDY    36  20  52 NE6       30.57F                  
WALLOPS ISLAND CLOUDY    36  19  50 NE5       30.56F                  
ACCOMACK*      CLOUDY    36  27  70 E5        30.55F                  
$$

NCZ012>017-030>032-201000-
NORTH CENTRAL AND EASTERN NORTH CAROLINA
  
CITY           SKY/WX    TMP DP  RH WIND       PRES   REMARKS
ROANOKE RAPIDS CLOUDY    32  30  93 CALM      30.51R                  
RALEIGH        CLOUDY    34  31  88 VRB6      30.46F                  
ELIZABETH CITY CLOUDY    37  32  82 NE8       30.51F                  
AHOSKIE*       CLOUDY    32  29  90 NE3       30.51R                  
EDENTON*       CLOUDY    37  35  92 NE7       30.49F                  
CURRITUCK*     CLOUDY    37  33  85 MISG      30.51F                  
KILL DEVIL HLS CLOUDY    38  32  78 NE7       30.49F                  
MANTEO         CLOUDY    39  33  78 NE12      30.51F                  
CAPE HATTERAS  LGT RAIN  48  37  65 NE12G20   30.47F                  
TARBORO*       CLOUDY    33  30  86 NE5       30.49F                  
GOLDSBORO      MOCLDY    36  30  80 NE10      30.44F                  
WASHINGTON     DRIZZLE   36  33  90 NE7       30.49F                  
GREENVILLE     DRIZZLE   36  32  87 E6        30.47F                  
NEW BERN       LGT RAIN  38  35  89 NE13      30.47F                  
WILMINGTON     CLOUDY    38  31  76 NE13      30.41F                  
$$

VAZ048-201000-
ELSEWHERE
  
CITY           SKY/WX    TMP DP  RH WIND       PRES   REMARKS
HARRISBURG PA  CLOUDY    30  14  51 E6        30.54F                  
BALTIMORE      CLOUDY    33  17  51 E6        30.54F                  
ANNAPOLIS      CLOUDY    37  16  42 E6        30.56F                  
ANDREWS AFB    MOCLDY    33  19  56 E6        30.53F                  
PHILADELPHIA   CLOUDY    31  12  45 E5        30.61F                  
HENDERSON NC   MIX PCPN  30  28  93 E7        30.46F                  
GREENSBORO     LGT RAIN  33  33 100 E9        30.39F FOG              
ROCKY MOUNT    CLOUDY    34  30  85 NE3       30.49F                  
$$

VAZ100-201000-
MARINE
  
STATION/POSITION TIME  TEMP    WIND        PRES    WAVE   SWELL
                       AIR SEA DIR/SP/G            HT/PER HT/PER
                 (UTC) (F)     (DEG/KT/KT) (MB)    (FT/S) (FT/S)
BRANDYWINE LGT   0848                      1036.0F
CAPE MAY NJ      0848   32 39   70/  5/  7 1035.4F
LEWES DE         0842   35 39   70/ 11/ 12 1035.6F
15NM E FENWICK I 0850      43              1035.5F   2/ 7
OCEAN-CITY-INLET 0842   36 41   70/  4/  6 1035.8F
WACHAPREAGUE VA  0848   37 45   50/  5/  7 1034.0F
THOMAS POINT MD  0900   34 38   70/ 10/ 11 1035.4F
COVE POINT MD    0848   35     160/  4/  8   N/A
SOLOMONS ISLAND  0848   35 39   80/  9/ 11 1035.0F
BISHOPS HEAD MD  0848   35 41   70/  7/  9 1035.5F
PINEY POINT MD   0836           90/  7/  9   N/A
CAMBRIDGE MD     0842   34 40              1035.8R
LEWISETTA VA     0842   38 41   90/  8/ 10 1034.4F
RAPPAHANNOCK LGT 0848           60/  8/  9 1035.3F
YORK RVR RNG VA  0848   39      70/ 16/ 18 1033.4F
YORKTOWN VA      0848   39 45   70/ 12/ 15 1033.0F
DOMINION TERM VA 0836   39      70/  7/ 11 1033.9F
KIPTOPEKE VA     0836      43   60/  3/  5   N/A
CAPE HENRY VA    0848   39      60/ 11/ 12 1032.3F
WILLOUBY STN VA  0836   38      50/ 12/ 14 1033.5F
S CRANEY ISL VA  0848   39      80/  9/ 10 1033.1F
CAPE HENRY BUOY  0830      43                N/A     2/ 6
1ST LANDING BUOY 0850   39      70/ 12/ 14 1033.8F
64NM E OF VA BCH 0850   44 50   50/ 12/ 16 1034.0F   3/ 6   2/ 7
DUCK PIER NC     0848   40 45   60/ 13/ 15 1032.9F
44100 DUCK FRF   0845      45                N/A     3/ 6
44056 DUCK FRF   0830      44                N/A     3/ 6
OREGON INLET NC  0836   40 46   30/ 14/ 18 1032.6F
HATTERAS NC      0836   42 53   40/ 11/ 19 1031.3F
CAPE LOOKOUT NC  0800           20/ 20/ 23 1031.3F
$$